Location: ??
(35.5052°N, 139.7262°E)
Time: 17:12:37
(UTC+00:00)

Cosmos 2369 Rocket - Pass Details

Date: 20 June 2021
Orbit: 827 x 854 km, 71.0° (Epoch: 29 July)

Event Time Altitude Azimuth Distance (km) Brightness Sun altitude
Rises 15:47:07 0° 336° (NNW) 3,427 6.0 -29.1°
Reaches altitude 10° 15:49:35 10° 335° (NNW) 2,487 5.2 -29.0°
Enters shadow 15:54:38 67° 303° (WNW) 921 2.3 -28.7°
